| time (UTC) | temp F | wind direction | speed knots | gust knots | rain 1hr in | rain 24hr in | rain mn in | humidity % | barometer mb |
| 20260508084828 | 70 | 194 | 2.6 | 0.0 | 0.00 | 0.00 | 0.00 | 56 | 1018.4 |
| 20260508083833 | 70 | 186 | 2.6 | 0.0 | 0.00 | 0.00 | 0.00 | 56 | 1018.6 |
| 20260508082826 | 70 | 215 | 2.6 | 0.0 | 0.00 | 0.00 | 0.00 | 56 | 1018.8 |
| 20260508081831 | 70 | 161 | 1.7 | 0.0 | 0.00 | 0.00 | 0.00 | 57 | 1018.5 |
| 20260508080856 | 69 | 183 | 1.7 | 0.0 | 0.00 | 0.00 | 0.00 | 57 | 1018.4 |
| 20260508075841 | 69 | 202 | 1.7 | 0.0 | 0.00 | 0.00 | 0.00 | 58 | 1018.6 |
| 20260508074843 | 69 | 188 | 2.6 | 0.0 | 0.00 | 0.00 | 0.00 | 58 | 1018.8 |
| 20260508073847 | 69 | 147 | 2.6 | 0.0 | 0.00 | 0.00 | 0.00 | 57 | 1018.8 |
| 20260508072834 | 69 | 216 | 2.6 | 0.0 | 0.00 | 0.00 | 0.00 | 55 | 1018.9 |
| 20260508071839 | 68 | 333 | 2.6 | 0.0 | 0.00 | 0.00 | 0.00 | 55 | 1019.0 |
| 20260508070828 | 68 | 192 | 1.7 | 0.0 | 0.00 | 0.00 | 0.00 | 55 | 1019.2 |
| 20260508065844 | 68 | 131 | 2.6 | 0.0 | 0.00 | 0.00 | 0.00 | 53 | 1019.4 |
| 20260508064829 | 68 | 205 | 1.7 | 0.0 | 0.00 | 0.00 | 0.00 | 52 | 1019.5 |
| 20260508063855 | 68 | 199 | 1.7 | 0.0 | 0.00 | 0.00 | 0.00 | 51 | 1019.3 |
| 20260508062842 | 68 | 177 | 1.7 | 0.0 | 0.00 | 0.00 | 0.00 | 50 | 1019.0 |
| 20260508061843 | 68 | 210 | 1.7 | 0.0 | 0.00 | 0.00 | 0.00 | 49 | 1019.0 |
| 20260508060837 | 69 | 244 | 1.7 | 0.0 | 0.00 | 0.00 | 0.00 | 48 | 1018.6 |
| 20260508055837 | 69 | 210 | 1.7 | 0.0 | 0.00 | 0.00 | 0.00 | 46 | 1018.4 |
| 20260508054840 | 68 | 234 | 1.7 | 0.0 | 0.00 | 0.00 | 0.00 | 46 | 1017.8 |
| 20260508053831 | 68 | 252 | 0.9 | 0.0 | 0.00 | 0.00 | 0.00 | 47 | 1017.5 |
| 20260508052831 | 68 | 244 | 0.9 | 0.0 | 0.00 | 0.00 | 0.00 | 47 | 1017.4 |
| 20260508051851 | 68 | 260 | 0.9 | 0.0 | 0.00 | 0.00 | 0.00 | 48 | 1017.2 |
| 20260508050843 | 68 | 227 | 0.9 | 0.0 | 0.00 | 0.00 | 0.00 | 50 | 1017.1 |
| 20260508045838 | 68 | 205 | 0.9 | 0.0 | 0.00 | 0.00 | 0.00 | 51 | 1017.0 |
| 20260508044842 | 67 | 194 | 0.9 | 0.0 | 0.00 | 0.00 | 0.00 | 54 | 1017.0 |
| 20260508043834 | 67 | 233 | 0.0 | 0.0 | 0.00 | 0.00 | 0.00 | 59 | 1017.0 |
| 20260508042831 | 67 | 233 | 0.9 | 0.0 | 0.00 | 0.00 | 0.00 | 59 | 1016.8 |
| 20260508041856 | 67 | 330 | 0.0 | 0.0 | 0.00 | 0.00 | 0.00 | 60 | 1016.6 |
| 20260508040827 | 67 | 330 | 0.9 | 0.0 | 0.00 | 0.00 | 0.00 | 60 | 1016.3 |
| 20260508035843 | 67 | 341 | 1.7 | 0.0 | 0.00 | 0.00 | 0.00 | 60 | 1016.2 |
| 20260508034843 | 67 | 5 | 0.9 | 0.0 | 0.00 | 0.00 | 0.00 | 60 | 1015.9 |
| 20260508033832 | 67 | 360 | 0.9 | 0.0 | 0.00 | 0.00 | 0.00 | 60 | 1016.0 |
| 20260508032828 | 67 | 360 | 0.9 | 0.0 | 0.00 | 0.00 | 0.00 | 59 | 1015.9 |
| 20260508031849 | 67 | 22 | 0.9 | 0.0 | 0.00 | 0.00 | 0.00 | 60 | 1016.0 |
| 20260508030838 | 67 | 22 | 0.0 | 0.0 | 0.00 | 0.00 | 0.00 | 60 | 1016.0 |
| 20260508025833 | 67 | 349 | 0.9 | 0.0 | 0.00 | 0.00 | 0.00 | 61 | 1015.9 |
| 20260508024834 | 67 | 350 | 0.9 | 0.0 | 0.00 | 0.00 | 0.00 | 60 | 1016.2 |
| 20260508023855 | 66 | 292 | 0.0 | 0.0 | 0.00 | 0.00 | 0.00 | 61 | 1016.0 |
| 20260508022827 | 67 | 292 | 0.0 | 0.0 | 0.00 | 0.00 | 0.00 | 60 | 1016.1 |
| 20260508021856 | 67 | 292 | 0.0 | 0.0 | 0.00 | 0.00 | 0.00 | 59 | 1016.3 |
| 20260508020827 | 67 | 292 | 0.9 | 0.0 | 0.00 | 0.00 | 0.00 | 58 | 1016.2 |
| 20260508015844 | 67 | 306 | 0.9 | 0.0 | 0.00 | 0.00 | 0.00 | 57 | 1016.2 |
| 20260508014845 | 67 | 24 | 0.0 | 0.0 | 0.00 | 0.00 | 0.00 | 57 | 1016.1 |
| 20260508013835 | 67 | 180 | 0.0 | 0.0 | 0.00 | 0.00 | 0.00 | 57 | 1016.3 |
| 20260508012834 | 67 | 180 | 0.0 | 0.0 | 0.00 | 0.00 | 0.00 | 58 | 1016.4 |
| 20260508011829 | 67 | 182 | 0.9 | 0.0 | 0.00 | 0.00 | 0.00 | 59 | 1016.5 |
| 20260508010835 | 67 | 190 | 0.9 | 0.0 | 0.00 | 0.00 | 0.00 | 60 | 1016.6 |
| 20260508005831 | 67 | 185 | 0.9 | 0.0 | 0.00 | 0.00 | 0.00 | 61 | 1016.7 |
| 20260508004853 | 67 | 169 | 0.9 | 0.0 | 0.00 | 0.00 | 0.00 | 61 | 1016.9 |
| 20260508003823 | 67 | 186 | 0.9 | 0.0 | 0.00 | 0.00 | 0.00 | 61 | 1016.9 |
| 20260508002844 | 67 | 148 | 0.0 | 0.0 | 0.00 | 0.00 | 0.00 | 62 | 1016.8 |
| 20260508001837 | 66 | 236 | 0.0 | 0.0 | 0.00 | 0.00 | 0.00 | 65 | 1016.9 |
| 20260508000840 | 66 | 236 | 0.0 | 0.0 | 0.00 | 0.00 | 0.00 | 65 | 1016.8 |
| 20260507235838 | 66 | 236 | 0.0 | 0.0 | 0.00 | 0.00 | 0.00 | 65 | 1016.8 |
| 20260507234830 | 67 | 243 | 0.9 | 0.0 | 0.00 | 0.00 | 0.00 | 65 | 1017.0 |
| 20260507233830 | 67 | 228 | 0.9 | 0.0 | 0.00 | 0.00 | 0.00 | 64 | 1017.2 |
| 20260507232848 | 67 | 205 | 0.9 | 0.0 | 0.00 | 0.00 | 0.00 | 64 | 1017.4 |
| 20260507231843 | 67 | 221 | 1.7 | 0.0 | 0.00 | 0.00 | 0.00 | 64 | 1017.5 |
| 20260507230846 | 67 | 203 | 1.7 | 0.0 | 0.00 | 0.00 | 0.00 | 65 | 1017.3 |
| 20260507225841 | 67 | 149 | 0.9 | 0.0 | 0.00 | 0.00 | 0.00 | 66 | 1017.4 |
| 20260507224834 | 67 | 149 | 1.7 | 0.0 | 0.00 | 0.00 | 0.00 | 65 | 1017.6 |
| 20260507223833 | 67 | 211 | 1.7 | 0.0 | 0.00 | 0.00 | 0.00 | 64 | 1017.8 |
| 20260507222827 | 67 | 224 | 1.7 | 0.0 | 0.00 | 0.00 | 0.00 | 63 | 1017.8 |
| 20260507221827 | 67 | 202 | 1.7 | 0.0 | 0.00 | 0.00 | 0.00 | 62 | 1017.7 |
| 20260507220829 | 67 | 207 | 1.7 | 0.0 | 0.00 | 0.00 | 0.00 | 62 | 1017.7 |
| 20260507215849 | 67 | 180 | 2.6 | 0.0 | 0.00 | 0.00 | 0.00 | 61 | 1017.8 |
| 20260507214839 | 67 | 198 | 1.7 | 0.0 | 0.00 | 0.00 | 0.00 | 60 | 1018.1 |
| 20260507213842 | 67 | 156 | 2.6 | 0.0 | 0.00 | 0.00 | 0.00 | 59 | 1018.1 |
| 20260507212836 | 68 | 126 | 1.7 | 0.0 | 0.00 | 0.00 | 0.00 | 58 | 1018.2 |
| 20260507211833 | 68 | 198 | 2.6 | 0.0 | 0.00 | 0.00 | 0.00 | 58 | 1018.2 |
| 20260507210831 | 68 | 133 | 1.7 | 0.0 | 0.00 | 0.00 | 0.00 | 55 | 1018.2 |
| 20260507205849 | 68 | 170 | 2.6 | 0.0 | 0.00 | 0.00 | 0.00 | 53 | 1018.3 |
| 20260507204844 | 68 | 147 | 2.6 | 0.0 | 0.00 | 0.00 | 0.00 | 51 | 1018.1 |
| 20260507203844 | 69 | 173 | 1.7 | 0.0 | 0.00 | 0.00 | 0.00 | 49 | 1018.2 |
| 20260507202832 | 69 | 195 | 1.7 | 0.0 | 0.00 | 0.00 | 0.00 | 47 | 1018.3 |
| 20260507201832 | 69 | 100 | 0.9 | 0.0 | 0.00 | 0.00 | 0.00 | 45 | 1018.1 |
| 20260507200832 | 69 | 215 | 1.7 | 0.0 | 0.00 | 0.00 | 0.00 | 44 | 1018.1 |
| 20260507195849 | 70 | 163 | 1.7 | 0.0 | 0.00 | 0.00 | 0.00 | 42 | 1017.9 |
| 20260507194843 | 70 | 200 | 0.9 | 0.0 | 0.00 | 0.00 | 0.00 | 42 | 1018.1 |
| 20260507193827 | 70 | 160 | 0.9 | 0.0 | 0.00 | 0.00 | 0.00 | 42 | 1017.9 |
| 20260507192855 | 70 | 219 | 0.0 | 0.0 | 0.00 | 0.00 | 0.00 | 42 | 1017.9 |
| 20260507191839 | 70 | 246 | 0.9 | 0.0 | 0.00 | 0.00 | 0.00 | 42 | 1017.9 |
| 20260507190838 | 70 | 206 | 0.0 | 0.0 | 0.00 | 0.00 | 0.00 | 43 | 1017.7 |
| 20260507185826 | 70 | 206 | 0.9 | 0.0 | 0.00 | 0.00 | 0.00 | 44 | 1017.6 |
| 20260507184833 | 69 | 187 | 0.9 | 0.0 | 0.00 | 0.00 | 0.00 | 46 | 1017.8 |
| 20260507183835 | 69 | 151 | 0.0 | 0.0 | 0.00 | 0.00 | 0.00 | 47 | 1017.8 |
| 20260507182826 | 69 | 250 | 0.9 | 0.0 | 0.00 | 0.00 | 0.00 | 48 | 1017.6 |
| 20260507181845 | 69 | 179 | 0.9 | 0.0 | 0.00 | 0.00 | 0.00 | 48 | 1017.7 |
| 20260507180845 | 69 | 79 | 1.7 | 0.0 | 0.00 | 0.00 | 0.00 | 48 | 1017.6 |
| 20260507175835 | 69 | 169 | 1.7 | 0.0 | 0.00 | 0.00 | 0.00 | 49 | 1017.7 |
| 20260507174838 | 69 | 242 | 2.6 | 0.0 | 0.00 | 0.00 | 0.00 | 49 | 1017.5 |
| 20260507173838 | 69 | 158 | 3.5 | 0.0 | 0.00 | 0.00 | 0.00 | 50 | 1017.4 |
| 20260507172828 | 70 | 186 | 2.6 | 0.0 | 0.00 | 0.00 | 0.00 | 49 | 1017.7 |
| 20260507171829 | 70 | 206 | 2.6 | 0.0 | 0.00 | 0.00 | 0.00 | 48 | 1017.7 |
| 20260507170852 | 71 | 266 | 2.6 | 0.0 | 0.00 | 0.00 | 0.00 | 45 | 1017.5 |
| 20260507165838 | 71 | 198 | 2.6 | 0.0 | 0.00 | 0.00 | 0.00 | 44 | 1017.2 |
| 20260507164845 | 72 | 146 | 2.6 | 0.0 | 0.00 | 0.00 | 0.00 | 43 | 1016.9 |
| 20260507163956 | 72 | 159 | 2.6 | 0.0 | 0.00 | 0.00 | 0.00 | 42 | 1017.0 |
| 20260507162837 | 72 | 109 | 1.7 | 0.0 | 0.00 | 0.00 | 0.00 | 42 | 1017.2 |
| 20260507161837 | 72 | 194 | 2.6 | 0.0 | 0.00 | 0.00 | 0.00 | 44 | 1017.1 |
| 20260507160827 | 72 | 234 | 1.7 | 0.0 | 0.00 | 0.00 | 0.00 | 44 | 1017.1 |
| 20260507155845 | 73 | 136 | 2.6 | 0.0 | 0.00 | 0.00 | 0.00 | 44 | 1017.1 |
| 20260507154828 | 73 | 162 | 2.6 | 0.0 | 0.00 | 0.00 | 0.00 | 43 | 1017.2 |
| 20260507153948 | 73 | 194 | 2.6 | 0.0 | 0.00 | 0.00 | 0.00 | 45 | 1017.2 |
| 20260507153852 | 73 | 194 | 2.6 | 0.0 | 0.00 | 0.00 | 0.00 | 45 | 1017.2 |
| 20260507153149 | 73 | 163 | 3.5 | 0.0 | 0.00 | 0.00 | 0.00 | 45 | 1017.4 |
| 20260507152843 | 73 | 163 | 3.5 | 0.0 | 0.00 | 0.00 | 0.00 | 45 | 1017.4 |
| 20260507152534 | 73 | 239 | 2.6 | 0.0 | 0.00 | 0.00 | 0.00 | 46 | 1017.6 |
| 20260507151841 | 73 | 239 | 2.6 | 0.0 | 0.00 | 0.00 | 0.00 | 46 | 1017.6 |
| 20260507150854 | 73 | 168 | 2.6 | 0.0 | 0.00 | 0.00 | 0.00 | 47 | 1017.5 |
| 20260507145853 | 73 | 127 | 2.6 | 0.0 | 0.00 | 0.00 | 0.00 | 47 | 1017.5 |
| 20260507144840 | 73 | 196 | 3.5 | 0.0 | 0.00 | 0.00 | 0.00 | 46 | 1017.5 |
| 20260507143829 | 74 | 193 | 3.5 | 0.0 | 0.00 | 0.00 | 0.00 | 46 | 1017.7 |
| 20260507142840 | 74 | 195 | 2.6 | 0.0 | 0.00 | 0.00 | 0.00 | 45 | 1017.6 |
| 20260507141845 | 74 | 246 | 3.5 | 0.0 | 0.00 | 0.00 | 0.00 | 44 | 1017.5 |
| 20260507140852 | 74 | 166 | 4.3 | 0.0 | 0.00 | 0.00 | 0.00 | 43 | 1017.4 |
| 20260507135857 | 75 | 169 | 3.5 | 0.0 | 0.00 | 0.00 | 0.00 | 43 | 1017.2 |
| 20260507134253 | 75 | 209 | 3.5 | 0.0 | 0.00 | 0.00 | 0.00 | 42 | 1017.3 |
| 20260507132943 | 76 | 189 | 4.3 | 0.0 | 0.00 | 0.00 | 0.00 | 40 | 1017.0 |
| 20260507131856 | 76 | 223 | 4.3 | 0.0 | 0.00 | 0.00 | 0.00 | 43 | 1017.0 |
| 20260507130837 | 75 | 194 | 2.6 | 0.0 | 0.00 | 0.00 | 0.00 | 44 | 1017.1 |
| 20260507125831 | 75 | 165 | 3.5 | 0.0 | 0.00 | 0.00 | 0.00 | 47 | 1017.2 |
| 20260507124849 | 75 | 148 | 2.6 | 0.0 | 0.00 | 0.00 | 0.00 | 47 | 1017.4 |
| 20260507123840 | 75 | 125 | 2.6 | 0.0 | 0.00 | 0.00 | 0.00 | 49 | 1017.5 |
| 20260507122841 | 75 | 140 | 2.6 | 0.0 | 0.00 | 0.00 | 0.00 | 49 | 1017.7 |
| 20260507121840 | 75 | 192 | 2.6 | 0.0 | 0.00 | 0.00 | 0.00 | 53 | 1017.8 |
| 20260507120850 | 75 | 224 | 3.5 | 0.0 | 0.00 | 0.00 | 0.00 | 50 | 1017.8 |
| 20260507115837 | 76 | 192 | 4.3 | 0.0 | 0.00 | 0.00 | 0.00 | 48 | 1017.8 |
| 20260507114843 | 76 | 186 | 2.6 | 0.0 | 0.00 | 0.00 | 0.00 | 51 | 1017.6 |
| 20260507113846 | 75 | 185 | 2.6 | 0.0 | 0.00 | 0.00 | 0.00 | 56 | 1017.9 |
| 20260507112835 | 73 | 161 | 4.3 | 0.0 | 0.00 | 0.00 | 0.00 | 62 | 1018.0 |
| 20260507111835 | 74 | 173 | 3.5 | 0.0 | 0.00 | 0.00 | 0.00 | 63 | 1018.0 |
| 20260507110852 | 73 | 173 | 3.5 | 0.0 | 0.00 | 0.00 | 0.00 | 62 | 1018.2 |
| 20260507105837 | 74 | 213 | 4.3 | 0.0 | 0.00 | 0.00 | 0.00 | 60 | 1018.0 |
| 20260507104836 | 75 | 209 | 4.3 | 0.0 | 0.00 | 0.00 | 0.00 | 58 | 1017.9 |
| 20260507103838 | 76 | 215 | 3.5 | 0.0 | 0.00 | 0.00 | 0.00 | 57 | 1017.9 |
| 20260507102827 | 76 | 159 | 2.6 | 0.0 | 0.00 | 0.00 | 0.00 | 58 | 1017.5 |
| 20260507101830 | 75 | 177 | 3.5 | 0.0 | 0.00 | 0.00 | 0.00 | 63 | 1017.4 |
| 20260507100844 | 74 | 35 | 2.6 | 0.0 | 0.00 | 0.00 | 0.00 | 66 | 1017.6 |
| 20260507095826 | 72 | 229 | 3.5 | 0.0 | 0.00 | 0.00 | 0.00 | 71 | 1017.6 |
| 20260507094830 | 72 | 182 | 2.6 | 0.0 | 0.00 | 0.00 | 0.00 | 70 | 1017.6 |
| 20260507093829 | 72 | 219 | 1.7 | 0.0 | 0.00 | 0.00 | 0.00 | 70 | 1017.6 |
| 20260507092849 | 73 | 175 | 2.6 | 0.0 | 0.00 | 0.00 | 0.00 | 66 | 1017.8 |
| 20260507091836 | 72 | 236 | 3.5 | 0.0 | 0.00 | 0.00 | 0.00 | 65 | 1017.7 |
| 20260507090830 | 73 | 250 | 2.6 | 0.0 | 0.00 | 0.00 | 0.00 | 65 | 1017.7 |
| 20260507085850 | 73 | 167 | 1.7 | 0.0 | 0.00 | 0.00 | 0.00 | 63 | 1017.5 |